Location: Ostrava
(49.8330°N, 18.2830°E)
Time: 06:44:40
(UTC+01:00)

Cosmos 1263 Rocket - Visible Passes

Search period start: 27 January 2015 00:00
Search period end: 06 February 2015 00:00
Orbit: 302 x 496 km, 82.9° (Epoch: 26 January)

Date Brightness Start Highest point End Pass type
(mag) Time Alt. Az. Time Alt. Az. Time Alt. Az.
30 Jan 3.5 18:21:16 10° N 18:22:42 21° NNE 18:22:42 21° NNE visible
30 Jan 5.2 19:55:16 10° NW 19:55:25 11° NW 19:55:25 11° NW visible
31 Jan 3.7 17:30:39 10° NE 17:32:24 14° ENE 17:34:13 10° E visible
31 Jan 2.8 19:02:36 10° NNW 19:05:57 50° W 19:07:08 33° SSW visible
01 Feb 2.2 18:10:47 10° N 18:14:06 45° ENE 18:17:33 10° SSE visible
01 Feb 5.1 19:45:03 10° NW 19:47:04 14° W 19:49:01 10° WSW visible
02 Feb 3.6 17:19:43 10° NNE 17:21:52 16° ENE 17:24:09 10° ESE visible
02 Feb 3.1 18:52:00 10° NNW 18:55:19 44° W 18:58:46 10° SSW visible
03 Feb 2.1 17:59:52 10° N 18:03:18 52° ENE 18:06:51 10° SSE visible
03 Feb 5.4 19:34:25 10° WNW 19:36:11 13° W 19:37:51 10° WSW visible
04 Feb 3.5 18:40:57 10° NNW 18:44:16 39° W 18:47:41 10° SSW visible
05 Feb 4.0 06:41:20 10° SSE 06:43:45 27° E 06:46:21 10° NNE visible
05 Feb 2.0 17:48:32 10° N 17:52:03 60° ENE 17:55:40 10° SSE visible
05 Feb 5.6 19:23:25 10° WNW 19:24:53 12° W 19:26:12 10° WSW visible
